Location: ?????
(37.7324°N, 23.9257°E)
Time: 22:28:13
(UTC+00:00)

Cosmos 1844 - Pass Details

Date: 29 November 2020
Orbit: 821 x 869 km, 70.9° (Epoch: 19 January)

Event Time Altitude Azimuth Distance (km) Brightness Sun altitude
Rises 04:22:39 0° 218° (SW) 3,341 6.6 -11.1°
Reaches altitude 10° 04:25:11 10° 225° (SW) 2,411 5.8 -10.6°
Maximum altitude 04:30:26 45° 297° (WNW) 1,107 3.9 -9.7°
Drops below altitude 10° 04:35:46 10° 10° (N) 2,431 6.0 -8.7°
Sets 04:38:19 0° 17° (NNE) 3,373 6.8 -8.2°
